Time,TemperatureF,DewpointF,PressureIn,WindDirection,WindDirectionDegrees,WindSpeedMPH,WindSpeedGustMPH,Humidity,HourlyPrecipIn,Conditions,Clouds,dailyrainin,SoftwareType,DateUTC
2013-04-06 00:00:00,40.3,22.2,30.03,South,187,0.0,0.0,48,0.00,,CLR,0.00,VWS V14.00,2013-04-06 04:00:00,
2013-04-06 00:01:00,40.3,22.2,30.03,South,187,0.0,2.7,48,0.00,,CLR,0.00,VWS V14.00,2013-04-06 04:01:00,
2013-04-06 00:06:00,39.9,22.3,30.03,WNW,296,0.0,0.0,49,0.00,,CLR,0.00,VWS V14.00,2013-04-06 04:06:00,
2013-04-06 00:12:00,40.1,22.5,30.03,WNW,296,0.0,0.0,49,0.00,,CLR,0.00,VWS V14.00,2013-04-06 04:12:00,
2013-04-06 00:17:00,39.9,22.3,30.03,WNW,296,0.0,0.0,49,0.00,,CLR,0.00,VWS V14.00,2013-04-06 04:17:00,
2013-04-06 00:22:00,39.9,22.3,30.03,WNW,296,0.0,2.7,49,0.00,,CLR,0.00,VWS V14.00,2013-04-06 04:22:00,
2013-04-06 00:27:00,39.4,21.8,30.03,SE,136,3.4,3.8,49,0.00,,CLR,0.00,VWS V14.00,2013-04-06 04:27:00,
2013-04-06 00:32:00,39.0,21.5,30.03,ESE,108,3.0,3.2,49,0.00,,CLR,0.00,VWS V14.00,2013-04-06 04:32:00,
2013-04-06 00:37:00,38.8,21.8,30.03,ESE,108,3.0,3.8,50,0.00,,CLR,0.00,VWS V14.00,2013-04-06 04:37:00,
2013-04-06 00:42:00,38.8,21.8,30.03,East,83,0.0,0.0,50,0.00,,CLR,0.00,VWS V14.00,2013-04-06 04:42:00,
2013-04-06 00:47:00,38.8,21.8,30.06,East,83,2.5,2.7,50,0.00,,CLR,0.00,VWS V14.00,2013-04-06 04:47:00,
2013-04-06 00:52:00,39.0,22.0,30.06,East,83,0.0,2.7,50,0.00,,CLR,0.00,VWS V14.00,2013-04-06 04:52:00,
2013-04-06 00:57:00,38.8,21.8,30.06,East,83,0.0,0.0,50,0.00,,CLR,0.00,VWS V14.00,2013-04-06 04:57:00,
2013-04-06 01:02:00,38.8,21.8,30.06,East,101,3.0,3.2,50,0.00,,CLR,0.00,VWS V14.00,2013-04-06 05:02:00,
2013-04-06 01:07:00,38.3,21.3,30.06,ENE,62,3.0,3.2,50,0.00,,CLR,0.00,VWS V14.00,2013-04-06 05:07:00,
2013-04-06 01:13:00,38.3,21.3,30.06,ENE,62,0.0,0.0,50,0.00,,CLR,0.00,VWS V14.00,2013-04-06 05:13:00,
2013-04-06 01:18:00,38.3,21.3,30.06,ENE,62,0.0,0.0,50,0.00,,CLR,0.00,VWS V14.00,2013-04-06 05:18:00,
2013-04-06 01:23:00,38.3,21.3,30.06,ENE,62,0.0,0.0,50,0.00,,CLR,0.00,VWS V14.00,2013-04-06 05:23:00,
2013-04-06 01:28:00,38.1,21.1,30.06,ENE,62,2.5,2.7,50,0.00,,CLR,0.00,VWS V14.00,2013-04-06 05:28:00,
2013-04-06 01:33:00,38.1,21.6,30.06,ENE,62,0.0,0.0,51,0.00,,CLR,0.00,VWS V14.00,2013-04-06 05:33:00,
2013-04-06 01:38:00,37.7,21.2,30.06,ENE,62,0.0,0.0,51,0.00,,CLR,0.00,VWS V14.00,2013-04-06 05:38:00,
2013-04-06 01:43:00,37.5,21.0,30.06,ENE,62,2.5,2.7,51,0.00,,CLR,0.00,VWS V14.00,2013-04-06 05:43:00,
2013-04-06 01:48:00,37.5,21.0,30.06,ENE,62,2.5,2.7,51,0.00,,CLR,0.00,VWS V14.00,2013-04-06 05:48:00,
2013-04-06 01:53:00,37.3,21.3,30.06,ENE,62,2.5,2.7,52,0.00,,CLR,0.00,VWS V14.00,2013-04-06 05:53:00,
2013-04-06 01:59:00,37.2,21.6,30.06,ENE,59,3.0,3.2,53,0.00,,CLR,0.00,VWS V14.00,2013-04-06 05:59:00,
2013-04-06 02:04:00,37.2,21.6,30.06,ENE,57,2.5,3.2,53,0.00,,CLR,0.00,VWS V14.00,2013-04-06 06:04:00,
2013-04-06 02:09:00,37.0,21.4,30.06,NE,54,2.5,2.7,53,0.00,,CLR,0.00,VWS V14.00,2013-04-06 06:09:00,
2013-04-06 02:14:00,37.0,21.4,30.06,NE,55,0.0,0.0,53,0.00,,CLR,0.00,VWS V14.00,2013-04-06 06:14:00,
2013-04-06 02:19:00,36.8,21.3,30.06,NE,55,2.5,2.7,53,0.00,,CLR,0.00,VWS V14.00,2013-04-06 06:19:00,
2013-04-06 02:24:00,36.6,21.5,30.06,NE,55,0.0,0.0,54,0.00,,CLR,0.00,VWS V14.00,2013-04-06 06:24:00,
2013-04-06 02:29:00,36.4,21.4,30.06,NE,55,0.0,0.0,54,0.00,,CLR,0.00,VWS V14.00,2013-04-06 06:29:00,
2013-04-06 02:35:00,36.4,20.9,30.06,NE,55,0.0,0.0,53,0.00,,CLR,0.00,VWS V14.00,2013-04-06 06:35:00,
2013-04-06 02:40:00,36.4,20.9,30.06,NE,55,0.0,0.0,53,0.00,,CLR,0.00,VWS V14.00,2013-04-06 06:40:00,
2013-04-06 02:45:00,36.2,20.8,30.06,NE,55,0.0,0.0,53,0.00,,CLR,0.00,VWS V14.00,2013-04-06 06:45:00,
2013-04-06 02:50:00,36.2,20.8,30.06,NE,55,0.0,0.0,53,0.00,,CLR,0.00,VWS V14.00,2013-04-06 06:50:00,
2013-04-06 02:55:00,36.2,20.8,30.06,NE,55,0.0,0.0,53,0.00,,CLR,0.00,VWS V14.00,2013-04-06 06:55:00,
2013-04-06 03:00:00,35.8,20.4,30.06,NE,55,0.0,0.0,53,0.00,,CLR,0.00,VWS V14.00,2013-04-06 07:00:00,
2013-04-06 03:05:00,35.5,20.5,30.06,NE,55,0.0,0.0,54,0.00,,CLR,0.00,VWS V14.00,2013-04-06 07:05:00,
2013-04-06 03:10:00,35.1,20.6,30.06,ENE,64,0.0,2.7,55,0.00,,CLR,0.00,VWS V14.00,2013-04-06 07:10:00,
2013-04-06 03:15:00,34.9,20.4,30.06,ENE,64,0.0,0.0,55,0.00,,CLR,0.00,VWS V14.00,2013-04-06 07:15:00,
2013-04-06 03:20:00,34.7,20.7,30.06,ENE,65,3.4,3.8,56,0.00,,CLR,0.00,VWS V14.00,2013-04-06 07:20:00,
2013-04-06 03:25:00,34.0,20.0,30.06,ENE,74,3.0,3.8,56,0.00,,CLR,0.00,VWS V14.00,2013-04-06 07:25:00,
2013-04-06 03:31:00,33.6,20.4,30.06,ENE,74,2.5,2.7,58,0.00,,CLR,0.00,VWS V14.00,2013-04-06 07:31:00,
2013-04-06 03:36:00,33.6,20.4,30.06,ENE,74,3.0,3.2,58,0.00,,CLR,0.00,VWS V14.00,2013-04-06 07:36:00,
2013-04-06 03:41:00,33.8,20.6,30.06,ENE,74,2.5,2.7,58,0.00,,CLR,0.00,VWS V14.00,2013-04-06 07:41:00,
2013-04-06 03:46:00,33.8,20.6,30.06,ENE,74,3.0,3.2,58,0.00,,CLR,0.00,VWS V14.00,2013-04-06 07:46:00,
2013-04-06 03:51:00,33.8,20.6,30.06,ENE,74,3.0,3.2,58,0.00,,CLR,0.00,VWS V14.00,2013-04-06 07:51:00,
2013-04-06 03:56:00,33.6,20.8,30.06,ENE,74,3.0,3.2,59,0.00,,CLR,0.00,VWS V14.00,2013-04-06 07:56:00,
2013-04-06 04:01:00,33.6,20.8,30.06,ENE,74,0.0,2.7,59,0.00,,CLR,0.00,VWS V14.00,2013-04-06 08:01:00,
2013-04-06 04:06:00,33.6,20.8,30.09,ENE,74,3.4,4.3,59,0.00,,CLR,0.00,VWS V14.00,2013-04-06 08:06:00,
2013-04-06 04:11:00,32.9,20.5,30.09,ENE,75,3.0,3.8,60,0.00,,CLR,0.00,VWS V14.00,2013-04-06 08:11:00,
2013-04-06 04:16:00,33.1,21.1,30.09,ENE,69,3.0,3.8,61,0.00,,CLR,0.00,VWS V14.00,2013-04-06 08:16:00,
2013-04-06 04:21:00,32.9,20.9,30.09,ENE,69,0.0,0.0,61,0.00,,CLR,0.00,VWS V14.00,2013-04-06 08:21:00,
2013-04-06 04:27:00,32.0,20.0,30.09,ENE,69,0.0,0.0,61,0.00,,CLR,0.00,VWS V14.00,2013-04-06 08:27:00,
2013-04-06 04:32:00,32.5,21.0,30.09,ENE,69,2.5,2.7,62,0.00,,CLR,0.00,VWS V14.00,2013-04-06 08:32:00,
2013-04-06 04:37:00,32.5,21.0,30.09,ENE,69,0.0,0.0,62,0.00,,CLR,0.00,VWS V14.00,2013-04-06 08:37:00,
2013-04-06 04:42:00,32.3,20.8,30.09,ENE,69,2.5,3.2,62,0.00,,CLR,0.00,VWS V14.00,2013-04-06 08:42:00,
2013-04-06 04:47:00,32.2,21.0,30.09,ENE,69,2.5,2.7,63,0.00,,CLR,0.00,VWS V14.00,2013-04-06 08:47:00,
2013-04-06 04:52:00,31.8,21.0,30.09,SE,143,2.5,3.2,64,0.00,,CLR,0.00,VWS V14.00,2013-04-06 08:52:00,
2013-04-06 04:57:00,31.4,20.6,30.09,SE,143,0.0,0.0,64,0.00,,CLR,0.00,VWS V14.00,2013-04-06 08:57:00,
2013-04-06 05:02:00,31.6,20.8,30.09,SE,143,0.0,2.7,64,0.00,,CLR,0.00,VWS V14.00,2013-04-06 09:02:00,
2013-04-06 05:07:00,31.6,20.8,30.09,SE,143,2.5,3.2,64,0.00,,CLR,0.00,VWS V14.00,2013-04-06 09:07:00,
2013-04-06 05:12:00,31.2,20.5,30.09,SE,143,0.0,2.7,64,0.00,,CLR,0.00,VWS V14.00,2013-04-06 09:12:00,
2013-04-06 05:17:00,31.0,20.3,30.09,SE,143,0.0,0.0,64,0.00,,CLR,0.00,VWS V14.00,2013-04-06 09:17:00,
2013-04-06 05:22:00,31.0,20.7,30.09,SE,143,0.0,0.0,65,0.00,,CLR,0.00,VWS V14.00,2013-04-06 09:22:00,
2013-04-06 05:27:00,31.0,20.3,30.09,SE,143,0.0,0.0,64,0.00,,CLR,0.00,VWS V14.00,2013-04-06 09:27:00,
2013-04-06 05:32:00,31.2,20.5,30.12,SE,143,0.0,0.0,64,0.00,,CLR,0.00,VWS V14.00,2013-04-06 09:32:00,
2013-04-06 05:37:00,31.0,20.7,30.12,SE,144,2.5,2.7,65,0.00,,CLR,0.00,VWS V14.00,2013-04-06 09:37:00,
2013-04-06 05:42:00,30.7,20.3,30.12,SE,144,2.5,3.2,65,0.00,,CLR,0.00,VWS V14.00,2013-04-06 09:42:00,
2013-04-06 05:48:00,30.5,20.5,30.12,East,99,3.4,3.8,66,0.00,,CLR,0.00,VWS V14.00,2013-04-06 09:48:00,
2013-04-06 05:53:00,30.1,20.5,30.12,East,89,3.4,3.8,67,0.00,,CLR,0.00,VWS V14.00,2013-04-06 09:53:00,
2013-04-06 05:58:00,30.1,20.8,30.12,East,89,3.0,3.2,68,0.00,,CLR,0.00,VWS V14.00,2013-04-06 09:58:00,
2013-04-06 06:03:00,30.1,20.8,30.12,East,89,3.0,3.8,68,0.00,,CLR,0.00,VWS V14.00,2013-04-06 10:03:00,
2013-04-06 06:08:00,29.9,21.0,30.12,East,86,3.0,3.2,69,0.00,,CLR,0.00,VWS V14.00,2013-04-06 10:08:00,
2013-04-06 06:13:00,30.1,21.5,30.12,ENE,68,3.0,3.2,70,0.00,,CLR,0.00,VWS V14.00,2013-04-06 10:13:00,
2013-04-06 06:18:00,29.4,20.5,30.12,NNW,327,0.0,0.0,69,0.00,,CLR,0.00,VWS V14.00,2013-04-06 10:18:00,
2013-04-06 06:23:00,29.5,21.0,30.12,NNW,327,0.0,3.2,70,0.00,,CLR,0.00,VWS V14.00,2013-04-06 10:23:00,
2013-04-06 06:28:00,29.2,20.6,30.12,NNW,327,2.5,2.7,70,0.00,,CLR,0.00,VWS V14.00,2013-04-06 10:28:00,
2013-04-06 06:33:00,29.2,20.6,30.12,NNW,327,0.0,2.7,70,0.00,,CLR,0.00,VWS V14.00,2013-04-06 10:33:00,
2013-04-06 06:38:00,28.8,20.6,30.12,NNW,327,0.0,0.0,71,0.00,,CLR,0.00,VWS V14.00,2013-04-06 10:38:00,
2013-04-06 06:43:00,28.6,20.8,30.12,NNW,327,3.0,3.2,72,0.00,,CLR,0.00,VWS V14.00,2013-04-06 10:43:00,
2013-04-06 06:48:00,28.4,20.6,30.12,NW,318,0.0,2.7,72,0.00,,CLR,0.00,VWS V14.00,2013-04-06 10:48:00,
2013-04-06 06:53:00,28.4,20.6,30.12,NW,318,0.0,0.0,72,0.00,,CLR,0.00,VWS V14.00,2013-04-06 10:53:00,
2013-04-06 06:58:00,28.4,20.6,30.12,NW,318,0.0,0.0,72,0.00,,CLR,0.00,VWS V14.00,2013-04-06 10:58:00,
2013-04-06 07:04:00,28.4,20.9,30.15,NW,318,0.0,0.0,73,0.00,,CLR,0.00,VWS V14.00,2013-04-06 11:04:00,
2013-04-06 07:09:00,28.6,21.1,30.15,NW,318,2.5,2.7,73,0.00,,CLR,0.00,VWS V14.00,2013-04-06 11:09:00,
2013-04-06 07:14:00,28.4,20.9,30.15,NW,318,0.0,0.0,73,0.00,,CLR,0.00,VWS V14.00,2013-04-06 11:14:00,
2013-04-06 07:19:00,28.1,20.9,30.15,NW,318,0.0,0.0,74,0.00,,CLR,0.00,VWS V14.00,2013-04-06 11:19:00,
2013-04-06 07:24:00,27.9,21.0,30.15,NW,318,0.0,0.0,75,0.00,,CLR,0.00,VWS V14.00,2013-04-06 11:24:00,
2013-04-06 07:29:00,28.1,21.5,30.15,NW,318,0.0,0.0,76,0.00,,CLR,0.00,VWS V14.00,2013-04-06 11:29:00,
2013-04-06 07:33:00,28.1,21.5,30.15,NW,318,0.0,0.0,76,0.00,,CLR,0.00,VWS V14.00,2013-04-06 11:33:00,
2013-04-06 07:38:00,28.1,21.8,30.15,NW,318,3.4,3.8,77,0.00,,CLR,0.00,VWS V14.00,2013-04-06 11:38:00,
2013-04-06 07:43:00,27.1,20.6,30.15,NW,318,0.0,0.0,76,0.00,,CLR,0.00,VWS V14.00,2013-04-06 11:43:00,
2013-04-06 07:48:00,27.5,21.3,30.18,NW,318,0.0,0.0,77,0.00,,CLR,0.00,VWS V14.00,2013-04-06 11:48:00,
2013-04-06 07:53:00,27.7,21.7,30.18,NW,318,0.0,0.0,78,0.00,,CLR,0.00,VWS V14.00,2013-04-06 11:53:00,
2013-04-06 07:58:00,28.4,22.8,30.18,NW,318,0.0,0.0,79,0.00,,CLR,0.00,VWS V14.00,2013-04-06 11:58:00,
2013-04-06 08:03:00,28.4,22.8,30.18,NW,318,0.0,0.0,79,0.00,,CLR,0.00,VWS V14.00,2013-04-06 12:03:00,
2013-04-06 08:08:00,28.8,22.8,30.18,NW,318,0.0,0.0,78,0.00,,CLR,0.00,VWS V14.00,2013-04-06 12:08:00,
2013-04-06 08:14:00,29.4,23.4,30.18,NW,318,0.0,0.0,78,0.00,,CLR,0.00,VWS V14.00,2013-04-06 12:14:00,
2013-04-06 08:19:00,29.4,23.4,30.18,NW,318,0.0,0.0,78,0.00,,CLR,0.00,VWS V14.00,2013-04-06 12:19:00,
2013-04-06 08:24:00,29.5,23.2,30.18,NW,318,0.0,0.0,77,0.00,,CLR,0.00,VWS V14.00,2013-04-06 12:24:00,
2013-04-06 08:29:00,29.7,23.1,30.18,NW,318,0.0,0.0,76,0.00,,CLR,0.00,VWS V14.00,2013-04-06 12:29:00,
2013-04-06 08:34:00,30.3,24.0,30.18,NW,318,0.0,0.0,77,0.00,,CLR,0.00,VWS V14.00,2013-04-06 12:34:00,
2013-04-06 08:39:00,30.7,24.3,30.18,NW,318,0.0,0.0,77,0.00,,CLR,0.00,VWS V14.00,2013-04-06 12:39:00,
2013-04-06 08:44:00,31.2,24.9,30.18,NW,318,3.0,3.8,77,0.00,,CLR,0.00,VWS V14.00,2013-04-06 12:44:00,
2013-04-06 08:49:00,32.0,25.3,30.18,NW,322,3.4,4.3,76,0.00,,CLR,0.00,VWS V14.00,2013-04-06 12:49:00,
2013-04-06 08:54:00,32.2,25.5,30.18,NW,322,3.0,3.8,76,0.00,,CLR,0.00,VWS V14.00,2013-04-06 12:54:00,
2013-04-06 08:59:00,32.7,25.7,30.18,NW,322,3.0,3.2,75,0.00,,CLR,0.00,VWS V14.00,2013-04-06 12:59:00,
2013-04-06 09:04:00,33.3,26.2,30.18,NW,322,2.5,3.2,75,0.00,,CLR,0.00,VWS V14.00,2013-04-06 13:04:00,
2013-04-06 09:09:00,34.0,25.9,30.18,NW,325,3.0,3.8,72,0.00,,CLR,0.00,VWS V14.00,2013-04-06 13:09:00,
2013-04-06 09:15:00,34.4,26.0,30.18,NW,325,3.0,3.2,71,0.00,,CLR,0.00,VWS V14.00,2013-04-06 13:15:00,
2013-04-06 09:20:00,35.1,26.0,30.18,NNW,341,2.5,2.7,69,0.00,,CLR,0.00,VWS V14.00,2013-04-06 13:20:00,
2013-04-06 09:25:00,35.7,25.1,30.18,NNW,339,3.4,3.8,65,0.00,,CLR,0.00,VWS V14.00,2013-04-06 13:25:00,
2013-04-06 09:30:00,36.2,24.5,30.18,NNW,345,3.4,3.8,62,0.00,,CLR,0.00,VWS V14.00,2013-04-06 13:30:00,
2013-04-06 09:35:00,37.0,24.4,30.18,NNW,333,3.0,3.2,60,0.00,,CLR,0.00,VWS V14.00,2013-04-06 13:35:00,
2013-04-06 09:40:00,37.5,23.7,30.18,NNW,331,3.0,4.3,57,0.00,,CLR,0.00,VWS V14.00,2013-04-06 13:40:00,
2013-04-06 09:45:00,38.1,22.5,30.18,NW,315,5.4,5.9,53,0.00,,CLR,0.00,VWS V14.00,2013-04-06 13:45:00,
2013-04-06 09:50:00,38.6,22.1,30.18,NW,325,2.5,2.7,51,0.00,,CLR,0.00,VWS V14.00,2013-04-06 13:50:00,
2013-04-06 09:56:00,39.4,23.2,30.18,NW,317,3.4,5.4,52,0.00,,CLR,0.00,VWS V14.00,2013-04-06 13:56:00,
2013-04-06 10:01:00,39.8,23.6,30.18,West,272,3.9,4.3,52,0.00,,CLR,0.00,VWS V14.00,2013-04-06 14:01:00,
2013-04-06 10:06:00,40.5,24.3,30.18,West,281,3.9,4.8,52,0.00,,CLR,0.00,VWS V14.00,2013-04-06 14:06:00,
2013-04-06 10:11:00,40.9,24.6,30.18,WNW,293,2.5,4.8,52,0.00,,CLR,0.00,VWS V14.00,2013-04-06 14:11:00,
2013-04-06 10:17:00,41.4,24.2,30.18,WNW,295,3.4,3.8,50,0.00,,CLR,0.00,VWS V14.00,2013-04-06 14:17:00,
2013-04-06 10:22:00,42.2,24.4,30.18,NW,304,4.4,6.4,49,0.00,,CLR,0.00,VWS V14.00,2013-04-06 14:22:00,
2013-04-06 10:27:00,42.5,23.7,30.18,NW,317,3.9,4.8,47,0.00,,CLR,0.00,VWS V14.00,2013-04-06 14:27:00,
2013-04-06 10:32:00,43.1,23.2,30.18,WNW,293,4.4,5.9,45,0.00,,CLR,0.00,VWS V14.00,2013-04-06 14:32:00,
2013-04-06 10:37:00,43.5,21.3,30.18,West,280,5.4,5.9,41,0.00,,CLR,0.00,VWS V14.00,2013-04-06 14:37:00,
2013-04-06 10:42:00,43.8,21.1,30.18,West,264,3.9,5.9,40,0.00,,CLR,0.00,VWS V14.00,2013-04-06 14:42:00,
2013-04-06 10:47:00,44.8,21.9,30.18,West,276,6.4,7.0,40,0.00,,CLR,0.00,VWS V14.00,2013-04-06 14:47:00,
2013-04-06 10:52:00,45.1,21.7,30.18,WNW,284,4.4,6.4,39,0.00,,CLR,0.00,VWS V14.00,2013-04-06 14:52:00,
2013-04-06 10:57:00,45.5,21.4,30.18,NW,326,4.4,4.8,38,0.00,,CLR,0.00,VWS V14.00,2013-04-06 14:57:00,
2013-04-06 11:02:00,45.9,21.7,30.18,NW,315,0.0,3.8,38,0.00,,CLR,0.00,VWS V14.00,2013-04-06 15:02:00,
2013-04-06 11:07:00,46.6,22.4,30.18,NNW,332,3.0,4.8,38,0.00,,CLR,0.00,VWS V14.00,2013-04-06 15:07:00,
2013-04-06 11:12:00,47.3,22.4,30.18,WNW,291,3.9,4.8,37,0.00,,CLR,0.00,VWS V14.00,2013-04-06 15:12:00,
2013-04-06 11:18:00,47.5,22.6,30.18,WNW,291,5.4,5.9,37,0.00,,CLR,0.00,VWS V14.00,2013-04-06 15:18:00,
2013-04-06 11:23:00,48.3,23.2,30.18,West,270,4.4,5.9,37,0.00,,CLR,0.00,VWS V14.00,2013-04-06 15:23:00,
2013-04-06 11:28:00,49.2,24.1,30.18,SW,223,3.0,7.0,37,0.00,,CLR,0.00,VWS V14.00,2013-04-06 15:28:00,
2013-04-06 11:33:00,49.4,24.2,30.18,WNW,290,4.4,9.1,37,0.00,,CLR,0.00,VWS V14.00,2013-04-06 15:33:00,
2013-04-06 11:38:00,49.2,23.4,30.18,NNW,340,3.4,4.3,36,0.00,,CLR,0.00,VWS V14.00,2013-04-06 15:38:00,
2013-04-06 11:43:00,49.6,23.1,30.18,WNW,291,6.9,9.9,35,0.00,,CLR,0.00,VWS V14.00,2013-04-06 15:43:00,
2013-04-06 11:48:00,50.5,24.6,30.18,WNW,300,6.4,7.5,36,0.00,,CLR,0.00,VWS V14.00,2013-04-06 15:48:00,
2013-04-06 11:53:00,50.5,23.2,30.18,NW,307,4.4,7.0,34,0.00,,CLR,0.00,VWS V14.00,2013-04-06 15:53:00,
2013-04-06 11:58:00,51.1,24.4,30.18,NNW,339,8.9,9.7,35,0.00,,CLR,0.00,VWS V14.00,2013-04-06 15:58:00,
2013-04-06 12:03:00,51.4,24.7,30.18,NW,310,6.4,7.0,35,0.00,,CLR,0.00,VWS V14.00,2013-04-06 16:03:00,
2013-04-06 12:08:00,51.8,25.0,30.18,NNW,334,5.4,7.5,35,0.00,,CLR,0.00,VWS V14.00,2013-04-06 16:08:00,
2013-04-06 12:14:00,52.7,26.5,30.18,WSW,245,5.9,9.9,36,0.00,,CLR,0.00,VWS V14.00,2013-04-06 16:14:00,
2013-04-06 12:19:00,52.7,24.4,30.18,NW,320,4.4,7.0,33,0.00,,CLR,0.00,VWS V14.00,2013-04-06 16:19:00,
2013-04-06 12:24:00,53.7,24.5,30.18,West,275,6.9,9.1,32,0.00,,CLR,0.00,VWS V14.00,2013-04-06 16:24:00,
2013-04-06 12:29:00,53.7,23.8,30.18,West,271,3.4,7.0,31,0.00,,CLR,0.00,VWS V14.00,2013-04-06 16:29:00,
2013-04-06 12:34:00,54.8,25.5,30.18,NNW,330,3.4,7.5,32,0.00,,CLR,0.00,VWS V14.00,2013-04-06 16:34:00,
2013-04-06 12:39:00,55.5,24.6,30.18,West,264,5.9,6.4,30,0.00,,CLR,0.00,VWS V14.00,2013-04-06 16:39:00,
2013-04-06 12:44:00,55.5,24.6,30.18,West,278,9.1,9.9,30,0.00,,CLR,0.00,VWS V14.00,2013-04-06 16:44:00,
2013-04-06 12:49:00,56.4,24.6,30.18,West,277,9.6,10.5,29,0.00,,CLR,0.00,VWS V14.00,2013-04-06 16:49:00,
2013-04-06 12:55:00,57.0,25.1,30.18,West,274,9.1,9.9,29,0.00,,CLR,0.00,VWS V14.00,2013-04-06 16:55:00,
2013-04-06 13:00:00,56.8,24.1,30.18,West,273,0.0,7.5,28,0.00,,CLR,0.00,VWS V14.00,2013-04-06 17:00:00,
2013-04-06 13:05:00,56.4,22.9,30.18,WNW,300,8.9,9.7,27,0.00,,CLR,0.00,VWS V14.00,2013-04-06 17:05:00,
2013-04-06 13:10:00,56.8,23.2,30.18,West,279,7.4,8.1,27,0.00,,CLR,0.00,VWS V14.00,2013-04-06 17:10:00,
2013-04-06 13:15:00,57.7,24.0,30.18,North,6,3.0,4.3,27,0.00,,CLR,0.00,VWS V14.00,2013-04-06 17:15:00,
2013-04-06 13:20:00,57.9,23.3,30.15,North,349,6.4,10.5,26,0.00,,CLR,0.00,VWS V14.00,2013-04-06 17:20:00,
2013-04-06 13:25:00,57.5,22.9,30.15,NNW,328,8.9,10.5,26,0.00,,CLR,0.00,VWS V14.00,2013-04-06 17:25:00,
2013-04-06 13:30:00,58.3,22.6,30.15,North,349,3.0,9.7,25,0.00,,CLR,0.00,VWS V14.00,2013-04-06 17:30:00,
2013-04-06 13:35:00,58.3,23.6,30.15,North,353,6.4,8.1,26,0.00,,CLR,0.00,VWS V14.00,2013-04-06 17:35:00,
2013-04-06 13:40:00,58.7,23.9,30.15,NNW,341,3.4,6.4,26,0.00,,CLR,0.00,VWS V14.00,2013-04-06 17:40:00,
2013-04-06 13:45:00,58.7,23.0,30.15,West,281,0.0,2.7,25,0.00,,CLR,0.00,VWS V14.00,2013-04-06 17:45:00,
2013-04-06 13:50:00,59.6,23.8,30.15,SSW,207,6.4,7.5,25,0.00,,CLR,0.00,VWS V14.00,2013-04-06 17:50:00,
2013-04-06 13:56:00,60.1,23.2,30.15,WSW,246,8.4,10.5,24,0.00,,CLR,0.00,VWS V14.00,2013-04-06 17:56:00,
2013-04-06 14:01:00,61.2,25.2,30.15,WSW,241,3.9,4.3,25,0.00,,CLR,0.00,VWS V14.00,2013-04-06 18:01:00,
2013-04-06 14:06:00,61.2,25.2,30.15,SW,226,3.9,4.8,25,0.00,,CLR,0.00,VWS V14.00,2013-04-06 18:06:00,
2013-04-06 14:11:00,60.9,23.9,30.15,SW,215,7.4,9.7,24,0.00,,CLR,0.00,VWS V14.00,2013-04-06 18:11:00,
2013-04-06 14:16:00,61.2,24.2,30.15,SSW,192,4.4,5.9,24,0.00,,CLR,0.00,VWS V14.00,2013-04-06 18:16:00,
2013-04-06 14:21:00,62.4,25.1,30.15,WNW,282,5.9,7.5,24,0.00,,CLR,0.00,VWS V14.00,2013-04-06 18:21:00,
2013-04-06 14:27:00,62.4,25.1,30.15,South,183,8.9,9.7,24,0.00,,CLR,0.00,VWS V14.00,2013-04-06 18:27:00,
2013-04-06 14:32:00,62.4,25.1,30.15,SSW,211,4.4,6.4,24,0.00,,CLR,0.00,VWS V14.00,2013-04-06 18:32:00,
2013-04-06 14:37:00,63.1,25.8,30.15,SSW,202,3.0,7.0,24,0.00,,CLR,0.00,VWS V14.00,2013-04-06 18:37:00,
2013-04-06 14:42:00,63.7,26.2,30.15,West,268,3.9,7.0,24,0.00,,CLR,0.00,VWS V14.00,2013-04-06 18:42:00,
2013-04-06 14:47:00,62.9,25.6,30.15,SW,228,6.9,13.2,24,0.00,,CLR,0.00,VWS V14.00,2013-04-06 18:47:00,
2013-04-06 14:52:00,63.3,25.9,30.12,SSE,153,3.4,3.8,24,0.00,,CLR,0.00,VWS V14.00,2013-04-06 18:52:00,
2013-04-06 14:57:00,62.5,25.3,30.12,West,280,0.0,5.9,24,0.00,,CLR,0.00,VWS V14.00,2013-04-06 18:57:00,
2013-04-06 15:02:00,63.8,26.4,30.12,WSW,245,4.4,6.4,24,0.00,,CLR,0.00,VWS V14.00,2013-04-06 19:02:00,
2013-04-06 15:07:00,64.2,26.7,30.12,WSW,251,3.9,4.3,24,0.00,,CLR,0.00,VWS V14.00,2013-04-06 19:07:00,
2013-04-06 15:12:00,64.8,27.2,30.12,SSE,160,3.9,4.3,24,0.00,,CLR,0.00,VWS V14.00,2013-04-06 19:12:00,
2013-04-06 15:17:00,64.0,26.5,30.12,SSW,195,3.4,3.8,24,0.00,,CLR,0.00,VWS V14.00,2013-04-06 19:17:00,
2013-04-06 15:22:00,65.3,27.6,30.12,West,264,5.9,8.1,24,0.00,,CLR,0.00,VWS V14.00,2013-04-06 19:22:00,
2013-04-06 15:27:00,65.7,26.9,30.12,SW,214,11.1,13.2,23,0.00,,CLR,0.00,VWS V14.00,2013-04-06 19:27:00,
2013-04-06 15:33:00,65.2,27.5,30.12,East,89,3.0,3.8,24,0.00,,CLR,0.00,VWS V14.00,2013-04-06 19:33:00,
2013-04-06 15:38:00,65.3,26.6,30.12,SW,223,4.9,6.4,23,0.00,,CLR,0.00,VWS V14.00,2013-04-06 19:38:00,
2013-04-06 15:43:00,64.6,26.0,30.12,South,180,9.1,10.5,23,0.00,,CLR,0.00,VWS V14.00,2013-04-06 19:43:00,
2013-04-06 15:48:00,64.8,27.2,30.12,SW,230,3.9,7.0,24,0.00,,CLR,0.00,VWS V14.00,2013-04-06 19:48:00,
2013-04-06 15:53:00,64.8,27.2,30.12,SSW,192,2.5,4.3,24,0.00,,CLR,0.00,VWS V14.00,2013-04-06 19:53:00,
2013-04-06 15:58:00,65.0,27.3,30.12,WSW,258,3.4,3.8,24,0.00,,CLR,0.00,VWS V14.00,2013-04-06 19:58:00,
2013-04-06 16:03:00,66.1,27.2,30.09,East,99,4.4,6.4,23,0.00,,CLR,0.00,VWS V14.00,2013-04-06 20:03:00,
2013-04-06 16:08:00,66.6,28.7,30.09,East,82,4.4,5.4,24,0.00,,CLR,0.00,VWS V14.00,2013-04-06 20:08:00,
2013-04-06 16:13:00,66.4,27.5,30.09,SSE,156,5.9,6.4,23,0.00,,CLR,0.00,VWS V14.00,2013-04-06 20:13:00,
2013-04-06 16:18:00,66.8,27.9,30.09,West,278,6.9,14.8,23,0.00,,CLR,0.00,VWS V14.00,2013-04-06 20:18:00,
2013-04-06 16:23:00,66.6,27.7,30.09,South,188,3.9,4.3,23,0.00,,CLR,0.00,VWS V14.00,2013-04-06 20:23:00,
2013-04-06 16:28:00,66.6,27.7,30.09,SW,219,2.5,3.8,23,0.00,,CLR,0.00,VWS V14.00,2013-04-06 20:28:00,
2013-04-06 16:34:00,67.0,28.0,30.09,SSW,210,4.4,4.8,23,0.00,,CLR,0.00,VWS V14.00,2013-04-06 20:34:00,
2013-04-06 16:39:00,66.8,27.9,30.09,SSW,205,6.9,7.5,23,0.00,,CLR,0.00,VWS V14.00,2013-04-06 20:39:00,
2013-04-06 16:44:00,67.2,28.2,30.09,SE,128,6.4,7.0,23,0.00,,CLR,0.00,VWS V14.00,2013-04-06 20:44:00,
2013-04-06 16:49:00,66.6,27.7,30.09,SSE,151,3.0,6.4,23,0.00,,CLR,0.00,VWS V14.00,2013-04-06 20:49:00,
2013-04-06 16:54:00,66.8,27.9,30.09,South,188,3.0,4.8,23,0.00,,CLR,0.00,VWS V14.00,2013-04-06 20:54:00,
2013-04-06 16:59:00,66.6,27.7,30.09,NE,50,7.4,8.1,23,0.00,,CLR,0.00,VWS V14.00,2013-04-06 20:59:00,
2013-04-06 17:04:00,65.7,26.9,30.09,East,79,3.9,7.5,23,0.00,,CLR,0.00,VWS V14.00,2013-04-06 21:04:00,
2013-04-06 17:10:00,66.3,28.4,30.09,SE,137,3.0,6.4,24,0.00,,CLR,0.00,VWS V14.00,2013-04-06 21:10:00,
2013-04-06 17:15:00,66.6,28.7,30.09,NE,43,3.0,4.3,24,0.00,,CLR,0.00,VWS V14.00,2013-04-06 21:15:00,
2013-04-06 17:20:00,66.4,28.6,30.09,East,88,4.4,4.8,24,0.00,,CLR,0.00,VWS V14.00,2013-04-06 21:20:00,
2013-04-06 17:25:00,66.8,28.9,30.09,SSE,166,9.6,10.5,24,0.00,,CLR,0.00,VWS V14.00,2013-04-06 21:25:00,
2013-04-06 17:30:00,66.8,28.9,30.09,East,84,3.9,4.3,24,0.00,,CLR,0.00,VWS V14.00,2013-04-06 21:30:00,
2013-04-06 17:35:00,66.1,28.3,30.09,ESE,114,5.9,9.1,24,0.00,,CLR,0.00,VWS V14.00,2013-04-06 21:35:00,
2013-04-06 17:40:00,66.1,28.3,30.09,South,182,6.9,11.5,24,0.00,,CLR,0.00,VWS V14.00,2013-04-06 21:40:00,
2013-04-06 17:45:00,65.2,27.5,30.09,ENE,65,3.0,4.8,24,0.00,,CLR,0.00,VWS V14.00,2013-04-06 21:45:00,
2013-04-06 17:51:00,64.6,27.0,30.09,ESE,112,3.9,6.4,24,0.00,,CLR,0.00,VWS V14.00,2013-04-06 21:51:00,
2013-04-06 17:56:00,64.8,27.2,30.09,East,86,3.0,4.8,24,0.00,,CLR,0.00,VWS V14.00,2013-04-06 21:56:00,
2013-04-06 18:01:00,64.2,26.7,30.09,East,97,3.4,3.8,24,0.00,,CLR,0.00,VWS V14.00,2013-04-06 22:01:00,
2013-04-06 18:06:00,63.8,27.4,30.09,SSE,152,5.9,7.5,25,0.00,,CLR,0.00,VWS V14.00,2013-04-06 22:06:00,
2013-04-06 18:11:00,63.8,27.4,30.09,SSE,153,5.9,6.4,25,0.00,,CLR,0.00,VWS V14.00,2013-04-06 22:11:00,
2013-04-06 18:16:00,63.1,26.7,30.09,SSE,163,6.9,9.7,25,0.00,,CLR,0.00,VWS V14.00,2013-04-06 22:16:00,
2013-04-06 18:22:00,62.9,26.6,30.09,SSW,201,4.4,7.0,25,0.00,,CLR,0.00,VWS V14.00,2013-04-06 22:22:00,
2013-04-06 18:27:00,62.7,27.4,30.09,South,182,4.4,9.7,26,0.00,,CLR,0.00,VWS V14.00,2013-04-06 22:27:00,
2013-04-06 18:32:00,62.5,27.2,30.09,SE,145,3.9,10.5,26,0.00,,CLR,0.00,VWS V14.00,2013-04-06 22:32:00,
2013-04-06 18:37:00,62.2,26.9,30.09,SSE,152,3.9,4.3,26,0.00,,CLR,0.00,VWS V14.00,2013-04-06 22:37:00,
2013-04-06 18:42:00,61.8,26.6,30.09,South,169,3.4,4.3,26,0.00,,CLR,0.00,VWS V14.00,2013-04-06 22:42:00,
2013-04-06 18:47:00,61.2,26.1,30.09,SE,138,2.5,6.4,26,0.00,,CLR,0.00,VWS V14.00,2013-04-06 22:47:00,
2013-04-06 18:52:00,60.7,26.5,30.09,NE,53,3.4,3.8,27,0.00,,CLR,0.00,VWS V14.00,2013-04-06 22:52:00,
2013-04-06 18:57:00,60.1,25.2,30.09,ENE,78,3.4,7.5,26,0.00,,CLR,0.00,VWS V14.00,2013-04-06 22:57:00,
2013-04-06 19:02:00,59.6,25.6,30.09,SSE,150,4.4,7.0,27,0.00,,CLR,0.00,VWS V14.00,2013-04-06 23:02:00,
2013-04-06 19:07:00,59.0,25.1,30.09,ENE,64,3.0,3.2,27,0.00,,CLR,0.00,VWS V14.00,2013-04-06 23:07:00,
2013-04-06 19:12:00,58.7,24.8,30.09,South,185,6.4,7.0,27,0.00,,CLR,0.00,VWS V14.00,2013-04-06 23:12:00,
2013-04-06 19:17:00,58.3,25.4,30.09,East,79,2.5,4.8,28,0.00,,CLR,0.00,VWS V14.00,2013-04-06 23:17:00,
2013-04-06 19:22:00,57.9,25.0,30.09,SSE,155,9.1,9.9,28,0.00,,CLR,0.00,VWS V14.00,2013-04-06 23:22:00,
2013-04-06 19:27:00,57.5,25.5,30.09,SE,145,5.9,6.4,29,0.00,,CLR,0.00,VWS V14.00,2013-04-06 23:27:00,
2013-04-06 19:32:00,57.4,25.4,30.12,ESE,122,2.5,2.7,29,0.00,,CLR,0.00,VWS V14.00,2013-04-06 23:32:00,
2013-04-06 19:38:00,57.0,25.1,30.12,SE,137,0.0,2.7,29,0.00,,CLR,0.00,VWS V14.00,2013-04-06 23:38:00,
2013-04-06 19:43:00,56.6,24.8,30.12,ESE,116,3.0,3.2,29,0.00,,CLR,0.00,VWS V14.00,2013-04-06 23:43:00,
2013-04-06 19:48:00,56.4,24.6,30.12,SE,139,0.0,4.3,29,0.00,,CLR,0.00,VWS V14.00,2013-04-06 23:48:00,
2013-04-06 19:53:00,56.1,24.3,30.12,SSE,150,0.0,2.7,29,0.00,,CLR,0.00,VWS V14.00,2013-04-06 23:53:00,
2013-04-06 19:58:00,55.7,24.8,30.12,South,171,3.0,7.0,30,0.00,,CLR,0.00,VWS V14.00,2013-04-06 23:58:00,
2013-04-06 20:03:00,55.5,24.6,30.12,SSE,160,0.0,0.0,30,0.00,,CLR,0.00,VWS V14.00,2013-04-07 00:03:00,
2013-04-06 20:08:00,55.3,25.2,30.12,South,173,0.0,3.2,31,0.00,,CLR,0.00,VWS V14.00,2013-04-07 00:08:00,
2013-04-06 20:13:00,55.0,24.9,30.12,SE,134,0.0,0.0,31,0.00,,CLR,0.00,VWS V14.00,2013-04-07 00:13:00,
2013-04-06 20:18:00,54.6,25.3,30.12,South,178,0.0,0.0,32,0.00,,CLR,0.00,VWS V14.00,2013-04-07 00:18:00,
2013-04-06 20:23:00,54.4,25.2,30.12,SSE,164,6.4,7.0,32,0.00,,CLR,0.00,VWS V14.00,2013-04-07 00:23:00,
2013-04-06 20:29:00,54.2,25.0,30.12,SSE,162,0.0,3.8,32,0.00,,CLR,0.00,VWS V14.00,2013-04-07 00:29:00,
2013-04-06 20:34:00,54.0,25.6,30.12,South,177,0.0,0.0,33,0.00,,CLR,0.00,VWS V14.00,2013-04-07 00:34:00,
2013-04-06 20:39:00,53.7,25.3,30.12,SE,128,0.0,3.2,33,0.00,,CLR,0.00,VWS V14.00,2013-04-07 00:39:00,
2013-04-06 20:44:00,53.5,25.1,30.12,SSE,147,3.0,4.3,33,0.00,,CLR,0.00,VWS V14.00,2013-04-07 00:44:00,
2013-04-06 20:49:00,53.3,24.9,30.12,West,267,3.0,4.8,33,0.00,,CLR,0.00,VWS V14.00,2013-04-07 00:49:00,
2013-04-06 20:55:00,53.1,25.5,30.12,SE,143,2.5,2.7,34,0.00,,CLR,0.00,VWS V14.00,2013-04-07 00:55:00,
2013-04-06 21:00:00,53.1,25.5,30.12,South,188,0.0,3.8,34,0.00,,CLR,0.00,VWS V14.00,2013-04-07 01:00:00,
2013-04-06 21:05:00,52.9,25.3,30.12,SE,146,3.4,4.3,34,0.00,,CLR,0.00,VWS V14.00,2013-04-07 01:05:00,
2013-04-06 21:10:00,52.9,25.3,30.12,SW,222,3.4,3.8,34,0.00,,CLR,0.00,VWS V14.00,2013-04-07 01:10:00,
2013-04-06 21:15:00,52.9,25.3,30.12,SE,128,3.9,4.8,34,0.00,,CLR,0.00,VWS V14.00,2013-04-07 01:15:00,
2013-04-06 21:20:00,52.5,25.7,30.12,SSE,152,3.0,3.8,35,0.00,,CLR,0.00,VWS V14.00,2013-04-07 01:20:00,
2013-04-06 21:25:00,52.5,25.7,30.12,South,184,0.0,3.8,35,0.00,,CLR,0.00,VWS V14.00,2013-04-07 01:25:00,
2013-04-06 21:30:00,52.3,25.5,30.12,SSE,165,3.9,7.5,35,0.00,,CLR,0.00,VWS V14.00,2013-04-07 01:30:00,
2013-04-06 21:35:00,52.2,25.4,30.12,South,175,5.4,9.9,35,0.00,,CLR,0.00,VWS V14.00,2013-04-07 01:35:00,
2013-04-06 21:40:00,52.2,26.0,30.12,SSE,154,4.4,7.0,36,0.00,,CLR,0.00,VWS V14.00,2013-04-07 01:40:00,
2013-04-06 21:45:00,52.0,25.9,30.12,SSW,192,2.5,3.8,36,0.00,,CLR,0.00,VWS V14.00,2013-04-07 01:45:00,
2013-04-06 21:50:00,52.0,25.9,30.12,South,172,6.4,7.0,36,0.00,,CLR,0.00,VWS V14.00,2013-04-07 01:50:00,
2013-04-06 21:55:00,51.8,25.7,30.12,SSW,210,3.4,3.8,36,0.00,,CLR,0.00,VWS V14.00,2013-04-07 01:55:00,
2013-04-06 22:01:00,51.8,25.7,30.12,SSE,151,6.4,9.9,36,0.00,,CLR,0.00,VWS V14.00,2013-04-07 02:01:00,
2013-04-06 22:06:00,51.6,25.5,30.15,SSW,196,3.4,3.8,36,0.00,,CLR,0.00,VWS V14.00,2013-04-07 02:06:00,
2013-04-06 22:12:00,51.4,25.4,30.15,SSE,148,4.9,7.0,36,0.00,,CLR,0.00,VWS V14.00,2013-04-07 02:12:00,
2013-04-06 22:17:00,51.2,25.2,30.15,SSE,162,3.9,4.3,36,0.00,,CLR,0.00,VWS V14.00,2013-04-07 02:17:00,
2013-04-06 22:22:00,51.1,25.0,30.15,SSW,192,4.4,4.8,36,0.00,,CLR,0.00,VWS V14.00,2013-04-07 02:22:00,
2013-04-06 22:27:00,51.1,24.4,30.15,SW,224,3.0,3.2,35,0.00,,CLR,0.00,VWS V14.00,2013-04-07 02:27:00,
2013-04-06 22:32:00,50.9,24.2,30.15,South,187,2.5,2.7,35,0.00,,CLR,0.00,VWS V14.00,2013-04-07 02:32:00,
2013-04-06 22:37:00,50.7,24.0,30.15,South,171,2.5,4.8,35,0.00,,CLR,0.00,VWS V14.00,2013-04-07 02:37:00,
2013-04-06 22:42:00,50.5,23.9,30.15,SE,146,3.0,6.4,35,0.00,,CLR,0.00,VWS V14.00,2013-04-07 02:42:00,
2013-04-06 22:47:00,50.5,23.9,30.15,SSW,195,3.0,3.8,35,0.00,,CLR,0.00,VWS V14.00,2013-04-07 02:47:00,
2013-04-06 22:52:00,50.5,23.9,30.15,SSE,165,7.4,8.1,35,0.00,,CLR,0.00,VWS V14.00,2013-04-07 02:52:00,
2013-04-06 22:57:00,50.3,23.7,30.15,East,97,5.4,7.0,35,0.00,,CLR,0.00,VWS V14.00,2013-04-07 02:57:00,
2013-04-06 23:03:00,50.3,23.7,30.15,SSE,168,4.4,6.4,35,0.00,,CLR,0.00,VWS V14.00,2013-04-07 03:03:00,
2013-04-06 23:08:00,50.1,23.6,30.15,SSW,196,0.0,4.8,35,0.00,,CLR,0.00,VWS V14.00,2013-04-07 03:08:00,
2013-04-06 23:13:00,49.8,23.2,30.15,SSW,196,5.9,6.4,35,0.00,,CLR,0.00,VWS V14.00,2013-04-07 03:13:00,
2013-04-06 23:18:00,49.8,23.2,30.15,SSE,156,3.0,4.8,35,0.00,,CLR,0.00,VWS V14.00,2013-04-07 03:18:00,
2013-04-06 23:23:00,49.6,23.1,30.15,South,182,3.0,4.8,35,0.00,,CLR,0.00,VWS V14.00,2013-04-07 03:23:00,
2013-04-06 23:28:00,49.6,23.1,30.15,SE,137,5.4,5.9,35,0.00,,CLR,0.00,VWS V14.00,2013-04-07 03:28:00,
2013-04-06 23:33:00,49.4,22.9,30.15,SSE,147,3.0,4.3,35,0.00,,CLR,0.00,VWS V14.00,2013-04-07 03:33:00,
2013-04-06 23:38:00,49.2,22.7,30.15,SSE,147,0.0,0.0,35,0.00,,CLR,0.00,VWS V14.00,2013-04-07 03:38:00,
2013-04-06 23:43:00,49.0,22.6,30.15,SSE,149,0.0,0.0,35,0.00,,CLR,0.00,VWS V14.00,2013-04-07 03:43:00,
2013-04-06 23:48:00,49.0,22.6,30.15,South,191,0.0,0.0,35,0.00,,CLR,0.00,VWS V14.00,2013-04-07 03:48:00,
2013-04-06 23:53:00,48.7,22.2,30.15,South,190,0.0,0.0,35,0.00,,CLR,0.00,VWS V14.00,2013-04-07 03:53:00,
2013-04-06 23:59:00,48.8,22.4,30.15,SSE,165,0.0,0.0,35,0.00,,CLR,0.00,VWS V14.00,2013-04-07 03:59:00,